Tracking 27122 objects as of 25-Mar-2023
HD Live streaming from Space Station
objects crossing your sky now

STARLINK-3857

Track STARLINK-3857 now!
10-day predictions
STARLINK-3857 is classified as:


NORAD ID: 52494
Int'l Code: 2022-049AV
Perigee: 545.8 km
Apogee: 547.6 km
Inclination: 53.2 °
Period: 95.4 minutes
Semi major axis: 6917 km
RCS: Unknown
Launch date: May 6, 2022
Source: United States (US)
Launch site: AIR FORCE EASTERN TEST RANGE (AFETR)
Your satellite tracking list
Your tracking list is empty




NASA's NSSDC Master Catalog

Two Line Element Set (TLE):
1 52494U 22049AV  23083.63898341  .00036798  00000-0  23148-2 0  9992
2 52494  53.2149 222.1462 0001305  80.8262 279.2878 15.08892656 49190
Source of the keplerian elements: AFSPC